User: anonymous   Login
Location: Unspecified
(0.0000°N, 0.0000°E)
Time: 00:59:57
(UTC+01:00)
Language:

Cosmos 494 Rocket - Orbit

View from above orbital plane
View from above orbital plane
View from above satellite
View from above satellite

Ground track
Ground track

The orbit data is extracted from the following two-line orbital elements,

1  6061U 72043B   17082.84697571 +.00000051 +00000-0 +24354-4 0  9992
2  6061 074.0581 337.7629 0019298 131.9880 228.2923 14.40491322345770
Epoch (UTC): 23 March 2017 20:19:38
Eccentricity: 0.0019298
inclination: 74.0581°
perigee height: 743 km
apogee height: 770 km
right ascension of ascending node: 337.7629°
argument of perigee: 131.9880°
revolutions per day: 14.40491322
mean anomaly at epoch: 228.2923°
orbit number at epoch: 34577

The dashed part of the orbit path shows where the satellite is in the earth's shadow,  

DLR